FW8254 Weather Reports


time (UTC)temp
C
wind
direction
speed
KPH
gust
KPH
rain 1hr
cm
rain 24hr
cm
rain mn
cm
humidity
%
barometer
mb
20260906032134 22 42 0.0 1.6 0.00 2.59 2.59 97 1006.5
20260906031630 22 41 0.0 0.0 0.00 2.59 2.59 97 1006.5
20260906031125 22 41 0.0 0.0 0.00 2.59 2.59 97 1006.6
20260906030624 22 30 0.0 1.6 0.00 2.59 2.59 97 1006.7
20260906030120 22 36 0.0 0.0 0.00 2.59 2.59 97 1006.6
20260906025619 22 37 0.0 0.0 0.00 2.59 2.59 97 1006.8
20260906025118 22 13 3.2 3.2 0.00 2.59 2.59 97 1006.5
20260906024613 22 351 3.2 4.8 0.00 2.59 2.59 97 1006.7
20260906024107 22 48 1.6 3.2 0.00 2.59 2.59 97 1006.7
20260906023603 22 42 0.0 0.0 0.00 2.59 2.59 97 1006.4
20260906023057 22 42 0.0 0.0 0.00 2.59 2.59 96 1006.5
20260906022553 22 42 0.0 0.0 0.00 2.59 2.59 96 1006.6
20260906022048 22 42 0.0 0.0 0.00 2.59 2.59 96 1006.7
20260906021544 22 42 0.0 0.0 0.00 2.59 2.59 96 1006.3
20260906021042 22 42 0.0 0.0 0.00 2.59 2.59 96 1006.3
20260906020537 23 42 0.0 0.0 0.00 2.59 2.59 96 1006.3
20260906020036 22 40 0.0 0.0 0.00 2.59 2.59 96 1006.0
20260906015536 22 40 0.0 0.0 0.00 2.59 2.59 96 1006.1
20260906015036 22 40 0.0 0.0 0.00 2.59 2.59 96 1006.0
20260906014531 22 41 0.0 1.6 0.00 2.59 2.59 96 1006.1
20260906014026 22 39 0.0 0.0 0.00 2.59 2.59 96 1006.0
20260906013522 22 39 0.0 0.0 0.00 2.59 2.59 96 1005.9
20260906013017 22 39 0.0 0.0 0.00 2.59 2.59 96 1005.7
20260906012512 22 39 0.0 0.0 0.00 2.59 2.59 95 1005.7
20260906012012 22 39 0.0 0.0 0.00 2.59 2.59 95 1005.6
20260906011508 22 39 0.0 1.6 0.00 2.59 2.59 95 1005.8
20260906011002 22 39 0.0 0.0 0.00 2.59 2.59 95 1005.6
20260906010457 22 39 0.0 0.0 0.00 2.59 2.59 95 1005.4
20260906005954 22 39 0.0 0.0 0.00 2.59 2.59 95 1005.6
20260906005453 22 39 0.0 0.0 0.00 2.59 2.59 95 1005.4
20260906004951 22 39 0.0 0.0 0.00 2.59 2.59 95 1005.4
20260906004446 22 39 0.0 0.0 0.00 2.59 2.59 95 1005.4
20260906003941 22 39 0.0 0.0 0.00 2.59 2.59 95 1005.5
20260906003442 22 39 0.0 0.0 0.00 2.59 2.59 95 1005.6
20260906002937 22 39 0.0 0.0 0.00 2.59 2.59 94 1005.6
20260906002437 22 39 0.0 0.0 0.00 2.59 2.59 94 1005.5
20260906001932 21 39 0.0 0.0 0.00 2.59 2.59 94 1005.7
20260906001428 21 39 0.0 0.0 0.00 2.59 2.59 94 1005.8
20260906000923 21 39 0.0 0.0 0.00 2.59 2.59 94 1005.8
20260906000418 22 39 0.0 0.0 0.00 2.59 2.59 94 1005.8
20260905235913 22 39 0.0 0.0 0.00 2.59 2.59 94 1006.0
20260905235407 22 39 0.0 0.0 0.00 2.59 2.59 94 1006.0
20260905234902 22 39 0.0 1.6 0.00 2.59 2.59 94 1006.1
20260905234357 22 22 3.2 3.2 0.00 2.59 2.59 94 1005.9
20260905233852 22 33 0.0 0.0 0.00 2.59 2.59 93 1005.8
20260905233347 22 43 0.0 3.2 0.00 2.59 2.59 93 1005.6
20260905232846 22 48 1.6 1.6 0.00 2.59 2.59 93 1005.8
20260905232343 22 42 0.0 0.0 0.00 2.59 2.59 93 1005.5
20260905231838 22 41 0.0 1.6 0.00 2.59 2.59 93 1005.8
20260905231338 22 39 0.0 1.6 0.00 2.59 2.59 93 1005.7
20260905230836 22 5 3.2 4.8 0.00 2.59 2.59 92 1005.8
20260905230333 22 332 3.2 4.8 0.00 2.59 2.59 92 1005.5
20260905225832 22 331 4.8 4.8 0.00 2.59 2.59 93 1005.3
20260905225328 22 28 0.0 1.6 0.00 2.59 2.59 93 1005.2
20260905224827 22 350 3.2 4.8 0.00 2.59 2.59 93 1005.0
20260905224323 22 331 4.8 9.7 0.00 2.59 2.59 93 1005.2
20260905223818 22 316 9.7 12.9 0.00 2.59 2.59 94 1005.3
20260905223316 22 4 4.8 4.8 0.00 2.59 2.59 95 1005.0
20260905222811 22 28 0.0 1.6 0.00 2.59 2.59 93 1004.7
20260905222309 22 29 0.0 1.6 0.00 2.59 2.59 93 1004.6
20260905221806 22 332 4.8 4.8 0.00 2.59 2.59 92 1005.1
20260905221302 22 340 4.8 4.8 0.13 2.59 2.59 92 1005.4
20260905220758 22 41 0.0 1.6 0.13 2.59 2.59 92 1005.4
20260905220254 22 38 0.0 0.0 0.00 2.57 2.57 92 1005.1
20260905215753 22 46 1.6 1.6 0.00 2.57 2.57 91 1005.1
20260905215249 22 46 1.6 1.6 0.18 2.57 2.57 91 1005.5
20260905214744 22 30 1.6 1.6 0.36 2.57 2.57 90 1005.4
20260905214240 22 60 1.6 3.2 0.71 2.51 2.51 90 1005.4
20260905213735 22 47 1.6 3.2 1.50 2.49 2.49 90 1005.9
20260905213231 22 286 4.8 8.0 0.79 2.34 2.34 89 1006.0
20260905212726 22 351 8.0 9.7 0.00 2.21 2.21 89 1006.7
20260905212225 22 91 1.6 3.2 6.60 2.18 2.18 88 1007.1
20260905211725 23 101 9.7 11.3 5.46 1.80 1.80 88 1007.6
20260905211221 25 82 6.4 9.7 5.46 0.91 0.91 85 1006.5
20260905210717 27 76 4.8 12.9 1.50 0.25 0.25 79 1006.0
20260905210212 31 79 4.8 16.1 0.00 0.00 0.00 61 1005.1
20260905205710 33 40 1.6 4.8 0.00 0.00 0.00 54 1004.4
20260905205204 35 26 0.0 1.6 0.00 0.00 0.00 54 1003.9
20260905204659 35 328 4.8 4.8 0.00 0.00 0.00 54 1003.9
20260905204154 35 29 0.0 1.6 0.00 0.00 0.00 55 1003.5
20260905203648 35 17 1.6 3.2 0.00 0.00 0.00 56 1003.3
20260905203144 36 26 1.6 4.8 0.00 0.00 0.00 53 1003.3
20260905202639 35 51 0.0 1.6 0.00 0.00 0.00 52 1003.3
20260905202135 35 78 1.6 1.6 0.00 0.00 0.00 51 1003.4
20260905201630 36 18 3.2 4.8 0.00 0.00 0.00 51 1003.8
20260905201130 35 12 3.2 3.2 0.00 0.00 0.00 52 1004.0
20260905200626 36 27 1.6 8.0 0.00 0.00 0.00 51 1004.2
20260905200121 36 50 0.0 3.2 0.00 0.00 0.00 51 1004.1
20260905195619 36 46 0.0 0.0 0.00 0.00 0.00 50 1004.1
20260905195115 36 33 0.0 1.6 0.00 0.00 0.00 50 1004.2
20260905194614 36 51 0.0 3.2 0.00 0.00 0.00 51 1004.1
20260905194114 35 38 0.0 8.0 0.00 0.00 0.00 51 1004.1
20260905193609 36 7 4.8 4.8 0.00 0.00 0.00 51 1004.2
20260905193104 35 14 3.2 3.2 0.00 0.00 0.00 53 1004.4
20260905192559 36 355 4.8 11.3 0.00 0.00 0.00 53 1004.2
20260905192055 36 10 3.2 4.8 0.00 0.00 0.00 53 1004.4
20260905191554 36 15 3.2 3.2 0.00 0.00 0.00 52 1004.4
20260905191048 36 43 0.0 4.8 0.00 0.00 0.00 53 1004.4
20260905190546 35 1 1.6 3.2 0.00 0.00 0.00 54 1004.6
20260905190045 35 0 1.6 8.0 0.00 0.00 0.00 54 1004.7
20260905185545 36 55 1.6 9.7 0.00 0.00 0.00 56 1004.7
20260905185044 36 42 0.0 3.2 0.00 0.00 0.00 54 1004.8
20260905184539 35 36 0.0 3.2 0.00 0.00 0.00 55 1005.1
20260905184038 35 10 3.2 4.8 0.00 0.00 0.00 55 1004.9
20260905183537 35 30 1.6 3.2 0.00 0.00 0.00 56 1004.9
20260905183033 35 24 3.2 3.2 0.00 0.00 0.00 58 1005.3
20260905182527 34 21 1.6 3.2 0.00 0.00 0.00 57 1005.4
20260905182027 35 8 1.6 3.2 0.00 0.00 0.00 57 1005.4
20260905181522 35 49 1.6 4.8 0.00 0.00 0.00 57 1005.6
20260905181021 35 27 1.6 4.8 0.00 0.00 0.00 55 1005.7
20260905180516 35 31 3.2 3.2 0.00 0.00 0.00 56 1005.8
20260905180011 35 45 0.0 1.6 0.00 0.00 0.00 58 1005.9
20260905175510 34 43 0.0 3.2 0.00 0.00 0.00 60 1005.7
20260905175006 34 73 3.2 4.8 0.00 0.00 0.00 59 1005.8
20260905174501 34 59 1.6 4.8 0.00 0.00 0.00 60 1006.0
20260905173957 34 47 1.6 4.8 0.00 0.00 0.00 61 1006.0
20260905173453 33 65 4.8 9.7 0.00 0.00 0.00 60 1006.2
20260905172948 33 54 1.6 4.8 0.00 0.00 0.00 61 1006.4
20260905172446 33 29 0.0 1.6 0.00 0.00 0.00 61 1006.3
20260905171942 33 25 0.0 1.6 0.00 0.00 0.00 59 1006.6
20260905171439 33 26 0.0 1.6 0.00 0.00 0.00 60 1006.5
20260905170935 33 15 1.6 3.2 0.00 0.00 0.00 61 1006.3
20260905170431 33 20 0.0 3.2 0.00 0.00 0.00 60 1006.7
20260905165930 33 21 1.6 3.2 0.00 0.00 0.00 61 1006.7
20260905165425 32 28 0.0 3.2 0.00 0.00 0.00 59 1007.0
20260905164920 32 31 0.0 0.0 0.00 0.00 0.00 61 1006.9
20260905164414 32 20 0.0 1.6 0.00 0.00 0.00 62 1007.2
20260905163909 32 19 1.6 3.2 0.00 0.00 0.00 63 1007.2
20260905163406 32 24 1.6 3.2 0.00 0.00 0.00 63 1007.6
20260905162902 32 16 3.2 4.8 0.00 0.00 0.00 64 1007.2
20260905162356 32 25 1.6 4.8 0.00 0.00 0.00 65 1007.2
20260905161851 32 27 0.0 4.8 0.00 0.00 0.00 67 1007.5
20260905161350 31 30 0.0 1.6 0.00 0.00 0.00 67 1007.4
20260905160848 31 24 1.6 1.6 0.00 0.00 0.00 67 1007.5
20260905160343 31 21 1.6 4.8 0.00 0.00 0.00 66 1007.5
20260905155837 31 312 4.8 8.0 0.00 0.00 0.00 69 1007.5
20260905155331 31 359 3.2 8.0 0.00 0.00 0.00 70 1007.4
20260905154830 31 30 1.6 3.2 0.00 0.00 0.00 70 1007.6
20260905154326 30 9 4.8 8.0 0.00 0.00 0.00 70 1007.7
20260905153821 30 343 4.8 8.0 0.00 0.00 0.00 71 1007.7
20260905153318 30 284 4.8 8.0 0.00 0.00 0.00 72 1007.6
20260905152817 30 358 4.8 9.7 0.00 0.00 0.00 70 1007.9
20260905152316 30 351 3.2 4.8 0.00 0.00 0.00 71 1007.9
20260905151812 30 0 4.8 4.8 0.00 0.00 0.00 72 1008.0
20260905151307 30 315 4.8 9.7 0.00 0.00 0.00 72 1008.0
20260905150802 30 0 3.2 4.8 0.00 0.00 0.00 74 1008.0
20260905150302 30 326 6.4 9.7 0.00 0.00 0.00 73 1008.2
20260905145759 30 317 8.0 9.7 0.00 0.00 0.00 74 1008.1
20260905145253 29 314 3.2 4.8 0.00 0.00 0.00 75 1008.3
20260905144752 29 329 6.4 9.7 0.00 0.00 0.00 74 1008.3
20260905144248 29 342 4.8 8.0 0.00 0.00 0.00 74 1007.9
20260905143746 28 353 4.8 4.8 0.00 0.00 0.00 76 1008.2
20260905143241 28 8 3.2 4.8 0.00 0.00 0.00 77 1008.2
20260905142739 28 352 3.2 8.0 0.00 0.00 0.00 78 1008.3
20260905142234 28 308 8.0 11.3 0.00 0.00 0.00 78 1008.4
20260905141730 28 319 8.0 9.7 0.00 0.00 0.00 79 1008.3
20260905141226 28 307 8.0 9.7 0.00 0.00 0.00 79 1008.5
20260905140721 28 355 6.4 8.0 0.00 0.00 0.00 80 1008.2
20260905140220 27 308 8.0 11.3 0.00 0.00 0.00 81 1008.3
20260905135715 27 315 6.4 8.0 0.00 0.00 0.00 82 1008.1
20260905135211 27 334 6.4 8.0 0.00 0.00 0.00 82 1008.3
20260905134710 27 320 4.8 8.0 0.00 0.00 0.00 83 1008.1
20260905134210 27 349 3.2 4.8 0.00 0.00 0.00 84 1008.2
20260905133705 26 314 6.4 9.7 0.00 0.00 0.00 84 1008.4
20260905133200 26 27 1.6 4.8 0.00 0.00 0.00 84 1008.5
20260905132659 26 30 4.8 4.8 0.00 0.00 0.00 85 1008.6
20260905132154 26 11 1.6 3.2 0.00 0.00 0.00 86 1008.8
20260905131649 26 6 1.6 4.8 0.00 0.00 0.00 86 1008.7
20260905131150 25 21 4.8 4.8 0.00 0.00 0.00 87 1008.7
20260905130644 25 356 4.8 8.0 0.00 0.00 0.00 87 1008.6
20260905130144 25 308 6.4 8.0 0.00 0.00 0.00 88 1008.8
20260905125638 25 8 3.2 4.8 0.00 0.00 0.00 89 1008.6
20260905125134 25 352 4.8 4.8 0.00 0.00 0.00 90 1008.7
20260905124630 24 21 4.8 8.0 0.00 0.00 0.00 90 1008.7
20260905124126 24 321 4.8 8.0 0.00 0.00 0.00 91 1008.6
20260905123621 24 30 3.2 4.8 0.00 0.00 0.00 91 1008.6
20260905123118 24 350 3.2 4.8 0.00 0.00 0.00 91 1008.5
20260905122613 24 5 4.8 8.0 0.00 0.00 0.00 91 1008.6
20260905122113 24 348 3.2 4.8 0.00 0.00 0.00 91 1008.5
20260905121607 24 358 4.8 4.8 0.00 0.00 0.00 92 1008.5
20260905121103 23 340 4.8 8.0 0.00 0.00 0.00 91 1008.4
20260905120602 23 39 3.2 3.2 0.00 0.00 0.00 92 1008.2
20260905120057 23 344 4.8 4.8 0.00 0.00 0.00 92 1008.3
20260905115556 23 9 3.2 4.8 0.00 0.00 0.00 92 1008.5
20260905115051 23 0 4.8 4.8 0.00 0.00 0.00 92 1008.3
20260905114550 23 355 3.2 3.2 0.00 0.00 0.00 92 1008.2
20260905114049 23 359 1.6 4.8 0.00 0.00 0.00 92 1008.3
20260905113544 23 350 3.2 4.8 0.00 0.00 0.00 92 1008.2
20260905113039 23 356 4.8 4.8 0.00 0.00 0.00 92 1008.3
20260905112535 23 27 1.6 3.2 0.00 0.00 0.00 92 1008.2
20260905112030 23 10 3.2 4.8 0.00 0.00 0.00 92 1008.2
20260905111525 23 348 4.8 4.8 0.00 0.00 0.00 92 1008.1
20260905111024 23 30 0.0 1.6 0.00 0.00 0.00 92 1008.0
20260905110523 23 32 0.0 3.2 0.00 0.00 0.00 92 1007.8
20260905110019 23 39 0.0 1.6 0.00 0.00 0.00 92 1007.9
20260905105513 23 3 3.2 3.2 0.00 0.00 0.00 92 1007.9
20260905105013 23 315 3.2 4.8 0.00 0.00 0.00 92 1007.8
20260905104509 23 34 0.0 1.6 0.00 0.00 0.00 91 1007.8
20260905104008 23 33 0.0 0.0 0.00 0.00 0.00 91 1007.7
20260905103503 23 34 0.0 1.6 0.00 0.00 0.00 91 1007.7
20260905102959 23 47 1.6 1.6 0.00 0.00 0.00 91 1007.5
20260905102455 23 33 0.0 1.6 0.00 0.00 0.00 91 1007.5
20260905101950 23 47 0.0 0.0 0.00 0.00 0.00 90 1007.7
20260905101449 23 47 0.0 0.0 0.00 0.00 0.00 90 1007.5
20260905100948 23 46 0.0 1.6 0.00 0.00 0.00 90 1007.5
20260905100444 23 45 0.0 0.0 0.00 0.00 0.00 90 1007.6
20260905095943 23 44 0.0 0.0 0.00 0.00 0.00 90 1007.4
20260905095438 23 44 0.0 0.0 0.00 0.00 0.00 90 1007.5
20260905094933 23 43 0.0 0.0 0.00 0.00 0.00 90 1007.5
20260905094429 23 35 0.0 0.0 0.00 0.00 0.00 90 1007.3
20260905093927 23 41 0.0 1.6 0.00 0.00 0.00 90 1007.5
20260905093423 24 36 0.0 1.6 0.00 0.00 0.00 90 1007.4
20260905092918 24 35 1.6 1.6 0.00 0.00 0.00 90 1007.5
20260905092413 24 5 3.2 3.2 0.00 0.00 0.00 90 1007.7
20260905091908 24 35 1.6 3.2 0.00 0.00 0.00 90 1007.6
20260905091403 24 29 1.6 1.6 0.00 0.00 0.00 90 1007.5
20260905090902 24 46 0.0 1.6 0.00 0.00 0.00 89 1007.7
20260905090358 24 44 0.0 1.6 0.00 0.00 0.00 89 1007.6
20260905085856 24 46 1.6 1.6 0.00 0.00 0.00 89 1007.7
20260905085351 24 45 0.0 0.0 0.00 0.00 0.00 89 1007.6
20260905084848 24 44 0.0 0.0 0.00 0.00 0.00 89 1007.8
20260905084346 24 43 0.0 0.0 0.00 0.00 0.00 89 1007.7
20260905083841 24 43 0.0 0.0 0.00 0.00 0.00 89 1007.7
20260905083337 25 37 0.0 0.0 0.00 0.00 0.00 89 1007.7
20260905082832 25 44 1.6 3.2 0.00 0.00 0.00 89 1007.6
20260905082328 25 30 0.0 1.6 0.00 0.00 0.00 89 1007.8
20260905081823 25 24 1.6 3.2 0.00 0.00 0.00 89 1007.8
20260905081318 25 22 1.6 3.2 0.00 0.00 0.00 89 1007.6
20260905080817 25 18 1.6 4.8 0.00 0.00 0.00 88 1007.4
20260905080312 25 12 3.2 3.2 0.00 0.00 0.00 89 1007.5
20260905075811 25 34 0.0 1.6 0.00 0.00 0.00 88 1007.8
20260905075310 25 42 0.0 1.6 0.00 0.00 0.00 88 1007.7
20260905074809 25 37 0.0 1.6 0.00 0.00 0.00 88 1007.8
20260905074306 25 37 0.0 1.6 0.00 0.00 0.00 88 1007.7
20260905073801 25 19 1.6 3.2 0.00 0.00 0.00 88 1007.6
20260905073255 25 29 1.6 1.6 0.00 0.00 0.00 87 1007.6
20260905072750 25 30 1.6 3.2 0.00 0.00 0.00 87 1007.7
20260905072245 25 27 1.6 3.2 0.00 0.00 0.00 87 1007.5
20260905071742 25 11 3.2 3.2 0.00 0.00 0.00 87 1007.5
20260905071237 25 17 3.2 3.2 0.00 0.00 0.00 87 1007.6
20260905070732 25 30 1.6 3.2 0.00 0.00 0.00 87 1007.6
20260905070229 26 340 3.2 3.2 0.00 0.00 0.00 86 1007.6
20260905065727 25 349 4.8 4.8 0.00 0.00 0.00 87 1007.8
20260905065221 25 34 0.0 1.6 0.00 0.00 0.00 86 1007.7
20260905064716 25 39 0.0 0.0 0.00 0.00 0.00 86 1007.8
20260905064212 26 40 1.6 3.2 0.00 0.00 0.00 86 1007.7
20260905063710 26 18 1.6 3.2 0.00 0.00 0.00 86 1007.8
20260905063207 26 343 3.2 3.2 0.00 0.00 0.00 86 1007.8
20260905062703 25 33 0.0 1.6 0.00 0.00 0.00 86 1007.9
20260905062202 25 32 0.0 1.6 0.00 0.00 0.00 86 1007.9
20260905061656 26 45 1.6 1.6 0.00 0.00 0.00 85 1007.8
20260905061156 25 47 0.0 0.0 0.00 0.00 0.00 85 1008.0
20260905060652 25 47 0.0 0.0 0.00 0.00 0.00 85 1008.3
20260905060148 26 47 0.0 0.0 0.00 0.00 0.00 85 1008.1
20260905055646 26 47 0.0 1.6 0.00 0.00 0.00 84 1008.3
20260905055142 26 47 0.0 0.0 0.00 0.00 0.00 84 1008.4
20260905054637 26 47 0.0 0.0 0.00 0.00 0.00 84 1008.3
20260905054133 26 47 0.0 0.0 0.00 0.00 0.00 84 1008.4
20260905053632 26 47 0.0 0.0 0.00 0.00 0.00 84 1008.5
20260905053128 26 47 0.0 0.0 0.00 0.00 0.00 84 1008.7
20260905052627 26 47 0.0 0.0 0.00 0.00 0.00 84 1008.5
20260905052122 26 47 0.0 0.0 0.00 0.00 0.00 83 1008.3
20260905051617 26 47 0.0 0.0 0.00 0.00 0.00 83 1008.8
20260905051114 26 47 0.0 0.0 0.00 0.00 0.00 83 1008.5
20260905050609 26 47 0.0 0.0 0.00 0.00 0.00 83 1008.7
20260905045601 26 48 0.0 0.0 0.00 0.00 0.00 83 1008.4
20260905045056 26 47 0.0 0.0 0.00 0.00 0.00 82 1008.7
20260905044555 26 47 0.0 0.0 0.00 0.00 0.00 82 1008.7
20260905044050 26 47 0.0 0.0 0.00 0.00 0.00 82 1008.7
20260905043549 26 47 0.0 0.0 0.00 0.00 0.00 82 1008.8
20260905043045 26 47 0.0 0.0 0.00 0.00 0.00 81 1008.9
20260905042543 26 47 0.0 0.0 0.00 0.00 0.00 81 1008.9
20260905042039 26 47 0.0 1.6 0.00 0.00 0.00 81 1008.8
20260905041534 26 47 0.0 0.0 0.00 0.00 0.00 81 1008.8
20260905041030 26 47 0.0 0.0 0.00 0.00 0.00 81 1008.7
20260905040529 26 47 0.0 0.0 0.00 0.00 0.00 81 1008.6
20260905040028 26 47 0.0 0.0 0.00 0.00 0.00 81 1008.7
20260905035523 26 47 0.0 0.0 0.00 0.00 0.00 80 1008.8
20260905035020 26 47 0.0 0.0 0.00 0.00 0.00 79 1008.9
20260905034516 26 47 0.0 0.0 0.00 0.00 0.00 79 1009.0
20260905034015 26 47 0.0 1.6 0.00 0.00 0.00 79 1008.9
20260905033509 27 47 0.0 0.0 0.00 0.00 0.00 78 1009.0
20260905033005 27 47 0.0 0.0 0.00 0.00 0.00 78 1009.1